Location: Le Petit-Vavre
(46.5081°N, 1.5239°E)
Time: 19:59:05
(UTC+00:00)

SL-8 Rocket - Pass Details

Date: 03 March 2021
Orbit: 957 x 990 km, 82.9° (Epoch: 22 April)

Event Time Altitude Azimuth Distance (km) Brightness Sun altitude
Rises 19:50:32 0° 192° (SSW) 3,669 7.0 -22.6°
Reaches altitude 10° 19:53:03 10° 195° (SSW) 2,720 6.3 -23.0°
Maximum altitude 19:59:16 73° 280° (W) 1,015 4.1 -24.0°
Drops below altitude 10° 20:05:30 10° 5° (N) 2,716 6.5 -25.1°
Sets 20:08:01 0° 8° (N) 3,663 7.1 -25.5°
